Location: Caltech
(34.1382°N, 118.1253°W)
Time: 15:31:43
(UTC-07:00)

BREEZE M DEB (TANK) - Visible Passes

Search period start: 06 May 2016 00:00
Search period end: 16 May 2016 00:00
Orbit: 334 x 13718 km, 49.6° (Epoch: 05 May)

Date Brightness Start Highest point End Pass type
(mag) Time Alt. Az. Time Alt. Az. Time Alt. Az.
06 May 6.7 03:52:49 25° SW 04:27:33 77° NW 04:38:01 10° NE visible
07 May 7.9 00:14:33 10° S 01:40:16 54° SE 01:58:58 10° ENE visible
07 May 8.7 22:46:40 19° ESE 22:47:46 19° ESE 23:10:37 10° E visible
08 May 7.0 03:04:02 33° SW 03:35:39 90° NW 03:48:00 10° NE visible
08 May 8.2 23:21:45 10° S 00:46:17 45° SE 01:07:57 10° ENE visible
09 May 6.5 04:48:03 11° WSW 05:27:41 51° NW 05:35:52 10° NE visible
09 May 8.9 21:57:16 12° ESE 21:57:16 12° ESE 22:08:05 10° E visible
10 May 7.3 02:14:33 40° SSW 02:43:10 78° SE 02:57:47 10° NE visible
10 May 8.4 22:32:19 10° S 23:51:57 37° SE 00:16:17 10° ENE visible
11 May 6.7 03:58:08 19° WSW 04:36:10 63° NW 04:45:54 10° NE visible
12 May 7.6 00:19:23 10° SSW 01:50:00 67° SE 02:07:20 10° NE visible
12 May 8.5 21:47:12 10° SSE 22:57:33 29° ESE 23:23:34 10° ENE visible
13 May 6.9 03:07:10 27° SW 03:44:19 75° NW 03:55:48 10° NE visible
13 May 8.0 23:23:39 10° S 00:56:08 57° SE 01:16:32 10° ENE visible
14 May 6.6 05:04:06 10° W 05:36:13 42° NNW 05:43:35 10° NE visible
14 May 8.6 21:08:11 10° SSE 22:03:25 21° ESE 22:28:54 10° E visible
15 May 7.1 01:27:58 10° SW 02:51:58 88° NW 03:05:32 10° NE visible
